ITAMSAT (IO-26)

Last updated on Sat Nov 01 2025 00:03:08 GMT+0000 (Coordinated Universal Time)

1 22826U 93061D 25304.45976762 .00000185 00000+0 86877-4 0 9992 2 22826 98.7151 6.5104 0009547 41.1602 319.0299 14.31271689674594
UTC large
Height (km)
Speed (km/s)
/
Latitude / Longitude
Inclination (degrees)
Orbital Period (minutes)
Azimuth
Elevation
Range (km)
Doppler Factor

Next 0 passes for location: London (51.5072 / 0.1276)

Sorry there are no passes over London.